Location: Newark
(49.0000°N, 111.9667°W)
Time: 16:20:17
(UTC+00:00)

Starlink (trailer) - Visible Passes

Search period start: 17 July 2019 00:00
Search period end: 27 July 2019 00:00
Orbit: 548 x 551 km, 53.0° (Epoch: 16 July)

Date Brightness Start Highest point End Pass type
(mag) Time Alt. Az. Time Alt. Az. Time Alt. Az.
17 Jul 5.3 09:04:37 18° SE 09:05:14 19° SE 09:08:12 10° E visible
17 Jul 3.6 10:40:15 10° WSW 10:44:20 78° SSE 10:48:29 10° ENE visible
18 Jul 4.9 08:59:12 24° SSE 08:59:42 24° SE 09:03:05 10° E visible
18 Jul 3.6 10:34:50 10° WSW 10:38:55 88° NNW 10:43:05 10° ENE visible
19 Jul 4.5 08:53:45 30° SSE 08:54:11 31° SE 08:57:52 10° ENE visible
19 Jul 3.8 10:29:23 10° WSW 10:33:33 75° NNW 10:37:42 10° ENE visible
20 Jul 4.2 08:48:14 38° SSE 08:48:41 39° SE 08:52:34 10° ENE visible
20 Jul 3.9 10:24:02 10° W 10:28:10 66° NNW 10:32:19 10° ENE visible
21 Jul 3.8 08:42:42 46° S 08:43:13 49° SE 08:47:14 10° ENE visible
21 Jul 4.1 10:18:42 10° W 10:22:49 59° NNW 10:26:55 10° ENE visible
22 Jul 3.6 08:37:06 53° SSW 08:37:45 62° SSE 08:41:52 10° ENE visible
22 Jul 4.3 10:13:23 10° W 10:17:27 53° N 10:21:32 10° ENE visible
23 Jul 6.0 06:55:50 11° E 06:55:50 11° E 06:56:09 10° E visible
23 Jul 3.5 08:31:28 54° SW 08:32:19 76° SSE 08:36:29 10° ENE visible
23 Jul 4.5 10:08:03 10° W 10:12:06 50° N 10:16:10 10° ENE visible
24 Jul 5.8 06:50:08 14° E 06:50:08 14° E 06:51:02 10° E visible
24 Jul 3.5 08:25:45 47° WSW 08:26:54 90° NNE 08:31:05 10° ENE visible
24 Jul 4.6 10:02:44 10° W 10:06:46 48° N 10:10:48 10° ENE visible
25 Jul 5.5 06:44:21 19° E 06:44:21 19° E 06:45:49 10° ENE visible
25 Jul 3.7 08:19:57 37° WSW 08:21:30 77° NNW 08:25:40 10° ENE visible
25 Jul 4.6 09:57:24 10° WNW 10:01:26 47° N 10:05:27 10° ENE visible
26 Jul 5.0 06:38:27 25° E 06:38:27 25° E 06:40:31 10° ENE visible
26 Jul 3.9 08:14:03 28° W 08:16:07 67° NNW 08:20:15 10° ENE visible
26 Jul 4.6 09:52:04 10° WNW 09:56:06 47° N 10:00:07 10° ENE visible
